Powrót do katalogu

MIDAS 5

STRONGBACK

AktywnyMilitariaPO
NORAD 271·PAYLOAD·🇺🇸 United States

Wystrzelony Apr 9, 1962 z Vandenberg Space Force Base

Loading…

Następne Przeloty (najbliższe 24 godziny)

TLE

ŚwieżeSource: Space-Track

Epoka: Sep 14, 2026, 14:03 UTC

1 00271U 62010A   26257.58589135  .00000006  00000-0  59560-3 0  9999
2 00271  86.6568 302.8781 0326877 279.8551  76.5601  9.41308809214082

Śledź MIDAS 5 w czasie rzeczywistym z AllMySat

Download on the App Store